Retour au catalogue

FENGYUN 1C DEB

ActifSSO
NORAD 33720·DEBRIS·🇨🇳 China

Lancé May 10, 1999 depuis Taiyuan Satellite Launch Center

Loading…

Prochains Passages (prochaines 24 heures)

TLE

FraisSource: Space-Track

Époque: Sep 11, 2026, 05:22 UTC

1 33720U 99025DHH 26254.22412263  .00001117  00000-0  33930-3 0  9992
2 33720  98.2502 252.8299 0078861 324.2438  35.3486 14.42280373972827

Suivez FENGYUN 1C DEB en temps réel avec AllMySat

Download on the App Store